Retour au catalogue

THOR ABLESTAR DEB

ActifPO
NORAD 3810·DEBRIS·🇺🇸 United States

Lancé Aug 13, 1965 depuis Vandenberg Space Force Base

Loading…

Prochains Passages (prochaines 24 heures)

TLE

FraisSource: Space-Track

Époque: Sep 13, 2026, 22:30 UTC

1 03810U 65065P   26256.93770979  .00000436  00000-0  63892-3 0  9990
2 03810  90.0035 216.0555 0063744  32.2089  31.1128 13.52269024270877

Suivez THOR ABLESTAR DEB en temps réel avec AllMySat

Download on the App Store